sat.trackr.live / text

‹ back to catalog

STARLINK-6317

NORAD 56526 · 2023-065Z

PAYLOAD ACTIVE UNKNOWN

§ Identity

Operator
Country
US
Launch date
2023-05-14
Launch site
AFETR
Launch vehicle
Mass (kg)
RCS (m²)

Purposes: comms

External: N2YO · Heavens-Above · Gunter

§ Orbital elements

Epoch: 2026-05-24T17:22:11.145504Z

Period
94.27 min
Inclination
43.0043°
Eccentricity
0.0001998
Mean motion
15.27577895 rev/d
Perigee alt
481.7 km
Apogee alt
484.4 km
Semi-major
6,861.2 km
B*
2.0943e-5
RAAN
143.4557°
Arg perigee
275.1132°
Mean anomaly
84.9492°
Rev number
16,822

§ Raw data

STARLINK-63171 56526U 23065Z   26144.72374011  .00000314  00000+0  20943-4 0  99912 56526  43.0043 143.4557 0001998 275.1132  84.9492 15.27577895168228

JSON: /api/v1/satellites/56526 · /tle

For live sub-satellite position, see the globe view (requires WebGL).

§ Visibility from observer

Set your observer location to see the next 7 days of passes ≥ 10°. The values pass through the URL so the page stays shareable.

No JS? Fill the form by hand. The geolocation button needs JavaScript.